#timestamp,LO_Frequency,Hit,StdDev 
1673848815.3,286047001.7,N
1673848835.1,286047003.8,N
1673848855.9,286047003.8,N
1673848875.7,286047002.9,N
1673848895.5,286047005.2,N
1673848915.4,286047004.8,N
1673848935.2,286047004.5,N
1673848955.0,286047004.5,N
1673848955.9,286047004.5,N
1673848975.8,286047006.4,Y
1673848995.6,286047005.1,P
1673849015.4,286047004.7,P
1673849035.3,286047004.8,P
1673849055.1,286047005.9,Y
1673849075.9,286047000.2,P
1673849095.7,286047002.6,N
1673849115.5,286047000.1,N
1673849135.3,286047002.4,N
1673849155.2,286047002.0,N
1673849175.0,286047002.0,N
1673849175.9,286047002.0,N
1673849195.7,286047002.3,N
1673849215.6,286047001.3,N
1673849235.4,286047001.4,N
1673849255.2,286047002.9,N
1673849275.1,286047003.1,N
1673849276.0,286047003.1,N
1673849295.8,286047003.1,N
1673849315.7,286047004.4,Y
1673849335.5,286047000.4,P
1673849355.3,286047001.9,N
1673849375.2,286047005.6,P
1673849395.9,286047007.1,Y
1673849415.7,286047003.4,P
1673849435.6,286047005.9,P
1673849455.4,286047005.0,P
1673849475.2,286047006.0,Y
1673849495.1,286047000.8,P
1673849496.0,286047000.8,N
1673849515.8,286047000.1,N
1673849535.6,286047000.2,N
1673849555.5,286047002.4,N
1673849575.3,286047002.5,N
1673849595.1,286047002.5,N
1673849615.9,286047002.2,N
1673849635.7,286047003.5,N
1673849655.5,286047003.7,N
1673849675.4,286047004.1,N
1673849695.2,286047003.7,N
1673849715.0,286047003.3,N
1673849715.9,286047003.3,N
1673849735.8,286047003.7,N
1673849755.6,286047002.9,N
1673849775.4,286047003.2,N
1673849795.3,286047003.4,N
1673849815.1,286047003.8,Y
1673849816.0,286047003.8,P
1673849835.8,286047000.4,N
1673849855.7,286046999.8,N
1673849875.5,286047002.4,N
1673849895.3,286047004.3,N
1673849915.2,286047002.2,N
1673849935.9,286047003.3,N
1673849955.7,286047003.6,N
1673849975.6,286047003.1,N
1673849995.4,286047006.0,Y
1673850015.2,286047001.3,P
1673850035.1,286047002.0,P
1673850036.0,286047002.0,P
1673850055.8,286047001.5,Y
1673850075.6,286047000.4,P
1673850095.5,286047002.4,P
1673850115.3,286046999.9,N
1673850135.1,286046999.8,N
1673850155.9,286047001.7,N
1673850205.7,286047002.2,E
1673850215.6,286046999.9,N
1673850235.5,286047001.2,P
1673850255.3,286047000.5,N
1673850275.1,286046998.1,Y
1673850295.9,286046999.0,P
1673850315.7,286046998.7,N
1673850335.5,286047000.8,N
1673850355.4,286046998.4,N
1673850375.2,286046998.7,N
1673850395.0,286046998.9,N
1673850396.0,286046998.9,N
1673850415.8,286046998.5,N
1673850435.6,286046998.6,N
1673850455.5,286046996.6,Y
1673850475.3,286047001.1,P
1673850495.1,286046998.1,N
1673850515.8,286046999.8,N
1673850535.7,286047002.4,N
1673850555.5,286047001.9,N
1673850575.3,286047001.8,N
1673850595.2,286047002.5,N
1673850615.0,286047001.3,N
1673850615.9,286047001.3,N
1673850635.7,286047004.2,Y
1673850655.6,286047003.9,P
1673850675.4,286047001.3,N
1673850695.2,286047003.9,N
1673850715.1,286047004.0,N
1673850716.0,286047004.0,N
1673850735.8,286047003.7,N
1673850755.6,286047002.2,N
1673850775.5,286047002.2,N
1673850795.3,286047001.8,N
1673850815.1,286047002.4,N
1673850835.9,286046999.9,N
1673850855.7,286046998.9,N
1673850875.5,286046998.8,N
1673850895.4,286046996.7,N
1673850915.2,286046999.5,N
1673850935.0,286046999.1,N
1673850935.9,286046999.1,N
1673850955.8,286046999.4,N
1673850975.6,286046998.6,N
1673850995.4,286046997.2,N
1673851015.3,286046996.5,N
1673851035.1,286046998.8,N
1673851055.8,286046996.5,N
1673851075.7,286046996.9,N
1673851095.5,286046999.2,N
1673851115.3,286046999.6,N
1673851135.2,286046999.4,N
1673851155.0,286046996.7,N
1673851155.9,286046996.7,N
1673851175.7,286046998.9,N
1673851195.6,286046998.1,N
1673851215.4,286046998.6,N
1673851235.2,286046998.5,N
1673851255.1,286046999.7,N
1673851256.0,286046999.7,N
1673851275.8,286047000.6,N
1673851295.6,286046998.6,N
1673851315.5,286046999.0,N
1673851335.3,286046997.1,N
1673851355.1,286046996.5,N
1673851375.9,286046996.9,N
1673851395.7,286046996.9,N
1673851415.5,286046996.7,N
1673851435.4,286046999.6,N
1673851455.2,286046996.8,N
1673851475.0,286046997.9,N
1673851506.0,286046996.1,E
1673851515.9,286046997.5,N
1673851535.7,286047001.2,P
1673851555.6,286047001.5,N
1673851575.4,286047001.5,N
1673851595.2,286047001.6,N
1673851615.1,286047002.2,N
1673851616.0,286047002.2,N
1673851635.8,286047000.1,N
1673851655.6,286047000.7,N
1673851675.5,286047001.1,N
1673851695.3,286046998.3,N
1673851715.1,286046998.2,N
1673851735.9,286046999.0,N
1673851755.7,286046999.5,N
1673851775.5,286046996.5,N
1673851795.4,286046996.9,N
1673851815.2,286046996.7,N
1673851835.0,286046996.5,N
1673851835.9,286046996.5,N
1673851855.8,286046996.7,N
1673851875.6,286046997.1,N
1673851895.4,286046996.3,N
1673851915.3,286046996.8,N
1673851935.1,286046999.9,N
1673851936.0,286046999.9,N
1673851955.8,286046999.9,N
1673851975.7,286047001.1,N
1673851995.5,286046998.2,N
1673852015.3,286046998.4,N
1673852035.2,286046997.1,N
1673852055.9,286046999.1,N
1673852075.7,286046999.2,N
1673852095.6,286046999.3,N
1673852115.4,286046999.2,N
1673852135.2,286046996.5,N
1673852155.1,286046999.1,N
1673852156.0,286046999.1,N
1673852175.8,286046996.6,N
1673852195.6,286046996.9,N
1673852215.5,286047001.1,N
1673852235.3,286046998.4,N
1673852255.1,286046998.4,N
1673852275.9,286046999.4,N
1673852295.7,286046998.9,N
1673852315.5,286046998.3,N
1673852335.4,286046998.6,N
1673852355.2,286046996.6,N
1673852375.0,286046997.1,N
1673852375.9,286046997.1,N
1673852395.8,286046997.2,N
